DELTA 1 DEB, 40766

Orbit data source: Space-Track

DELTA 1 DEB, 40766 is space debris in SSO originally from a launch on Thu, 29 Jul 1976 UTC launched from the Air Force Western Test Range (AFWTR). Debris objects in space refer to the collection of defunct objects orbiting the Earth. Examples of debris include non-operational satellites, rocket bodies, and fragments generated from explosions, collisions, or faulty payload assembly.

Loading next visibility...
Identifier
40766, 1976-077GK
Orbit
SSO
Country
Flag of USUS
Related business
Manufacturer
Unknown
Mission
Spacecraft
Bus & Motor
Unknown
Mass
Unknown
Launch date (UTC)
1976-07-29 (49 years ago)
Launch vehicle
Unknown
Launch site
Air Force Western Test Range (AFWTR)
Object type
Payload
Rocket body
Debris
Shape & HBR
Unknown shape, 0.1 m
Radar Cross Section
Small (<0.1 m²)

Expand to show TLE details & history
Last TLE update: 1 day ago

TLE from 1 day ago
0 DELTA 1 DEB
1 40766U 76077GK  25300.71793632 -.00000010  00000-0  30799-3 0  9991
2 40766 102.1469 203.7494 0101778 264.0152 119.9434 12.23236544 92533
Epoch: 2025-10-27T17:13Z
TLE epoch observation values (Epoch: 2025-10-27T17:13:49.698Z)
Latitude
24.39241°
Longitude
-96.59745°
Altitude
1,622.12 km
Speed
7.044 km/s
True Right ascension
13h 12m 42s
True Declination
24° 16' 38"
Sunlit
Object was in daylight at epoch
Visualization orbit readout
Latitude
Unknown
Longitude
Unknown
Altitude
Unknown
Speed
Unknown
Apparent Right ascension
Unknown
Apparent Declination
Unknown
Sunlit
N/A
Visualization observer readout
Local Sidereal Time
14:45:13
Azimuth
Unknown
Elevation
Unknown
Doppler factor
Unknown
Orbital elements
Apogee altitude
1,657.037 km
Perigee altitude
1,495.124 km
Semi-major axis
7,954.218 km
Eccentricity
0.01018
Inclination
102.1469°
RAAN
203.7494°
Arg. of periapsis
264.0152°
True anomaly
120.94758°
Mean anomaly
119.9434°
Eccentric anomaly
120.44613°
Mean motion
3.05948 °/min
Orbital period
117.67 mins
BSTAR
0.00030799
Loading maneuver chart data...
Computing Atmospheric mass density...
Loading historical data...
Loading historical data...
Loading historical data...
Loading historical data...
Loading historical data...
Loading historical data...
Loading historical data...

Documentation

Showing up to 5 results
|